sat.trackr.live / text

‹ back to catalog

AAC-HSI-SAT2

NORAD 56995 · 2023-084BX

PAYLOAD ACTIVE UNKNOWN

§ Identity

Operator
Country
UK
Launch date
2023-06-12
Launch site
AFWTR
Launch vehicle
Mass (kg)
RCS (m²)

External: N2YO · Heavens-Above · Gunter

§ Orbital elements

Epoch: 2026-05-25T04:13:54.472224Z

Period
94.72 min
Inclination
97.8225°
Eccentricity
0.0010955
Mean motion
15.20193513 rev/d
Perigee alt
497.7 km
Apogee alt
512.8 km
Semi-major
6,883.4 km
B*
1.4173e-4
RAAN
294.5685°
Arg perigee
264.0278°
Mean anomaly
95.9708°
Rev number
16,284

§ Raw data

AAC-HSI-SAT21 56995U 23084BX  26145.17632491  .00002998  00000+0  14173-3 0  99982 56995  97.8225 294.5685 0010955 264.0278  95.9708 15.20193513162846

JSON: /api/v1/satellites/56995 · /tle

For live sub-satellite position, see the globe view (requires WebGL).

§ Visibility from observer

Set your observer location to see the next 7 days of passes ≥ 10°. The values pass through the URL so the page stays shareable.

No JS? Fill the form by hand. The geolocation button needs JavaScript.